Location: C.E.K. Mees Observatory
(42.7003°N, 77.4088°W)
Time: 00:06:21
(UTC-04:00)

Vanguard 3 - All Passes

Search period start: 18 October 2017 00:00
Search period end: 28 October 2017 00:00
Orbit: 510 x 3263 km, 33.3° (Epoch: 17 October)

Date Brightness Start Highest point End Pass type
(mag) Time Alt. Az. Time Alt. Az. Time Alt. Az.
18 Oct - 04:00:26 10° SSW 04:10:14 21° SSE 04:17:18 10° ESE visible
18 Oct - 06:12:46 10° SW 06:23:15 36° S 06:29:37 10° ESE visible
18 Oct - 08:27:32 10° WSW 08:35:10 37° S 08:39:55 10° ESE daylight
18 Oct - 10:42:30 10° WSW 10:45:53 17° SSW 10:48:37 10° SSE daylight
19 Oct - 02:47:31 10° S 02:55:28 16° SSE 03:01:55 10° ESE visible
19 Oct - 04:57:12 10° SW 05:08:58 32° SSE 05:16:27 10° ESE visible
19 Oct - 07:11:42 10° WSW 07:21:35 41° S 07:27:25 10° ESE daylight
19 Oct - 09:26:52 10° WSW 09:32:56 28° SSW 09:37:02 10° SE daylight
20 Oct - 03:42:12 10° SSW 03:54:18 26° SSE 04:02:41 10° ESE visible
20 Oct - 05:55:36 10° SW 06:07:34 41° S 06:14:38 10° ESE visible
20 Oct - 08:11:04 10° WSW 08:19:41 39° S 08:24:53 10° ESE daylight
20 Oct - 10:26:45 10° WSW 10:30:21 16° SSW 10:33:13 10° S daylight
21 Oct - 02:28:23 10° S 02:39:21 20° SSE 02:47:50 10° ESE visible
21 Oct - 04:39:38 10° SW 04:53:06 37° SSE 05:01:30 10° E visible
21 Oct - 06:54:52 10° WSW 07:05:58 45° S 07:12:22 10° ESE visible
21 Oct - 09:10:39 10° W 09:17:26 29° SSW 09:21:53 10° SE daylight
22 Oct - 01:17:14 10° SSE 01:24:16 13° SE 01:30:28 10° ESE visible
22 Oct - 03:24:13 10° SSW 03:38:14 32° SSE 03:47:46 10° E visible
22 Oct - 05:38:25 10° WSW 05:51:47 46° S 05:59:35 10° ESE visible
22 Oct - 07:54:29 10° WSW 08:04:06 41° SSW 08:09:47 10° SE daylight
22 Oct - 10:10:54 10° WSW 10:14:45 16° SW 10:17:46 10° S daylight
23 Oct - 02:09:53 10° SSW 02:23:05 25° SSE 02:33:09 10° ESE visible
23 Oct - 04:22:08 10° SW 04:37:07 43° SSE 04:46:23 10° E visible
23 Oct - 06:37:58 10° WSW 06:50:16 49° S 06:57:17 10° ESE visible
23 Oct - 08:54:20 10° W 09:01:50 29° SSW 09:06:40 10° SSE daylight
24 Oct - 00:57:28 10° S 01:07:52 17° SE 01:16:47 10° ESE visible
24 Oct - 03:06:24 10° SW 03:22:02 37° SSE 03:32:39 10° E visible
24 Oct - 05:21:15 10° WSW 05:35:53 50° S 05:44:26 10° ESE visible
24 Oct - 07:37:49 10° W 07:48:26 42° SSW 07:54:39 10° SE daylight
24 Oct - 09:54:59 10° WSW 09:59:03 15° SW 10:02:14 10° S daylight
25 Oct - 01:51:43 10° SSW 02:06:41 29° SSE 02:18:08 10° E visible
25 Oct - 04:04:43 10° SW 04:21:00 48° SSE 04:31:10 10° E visible
25 Oct - 06:21:01 10° WSW 06:34:27 51° S 06:42:08 10° ESE visible
25 Oct - 08:37:54 10° W 08:46:08 29° SSW 08:51:24 10° SSE daylight
26 Oct - 00:38:40 10° S 00:51:19 21° SE 01:02:11 10° ESE visible
26 Oct - 02:48:47 10° SW 03:05:40 42° SSE 03:17:23 10° E visible
26 Oct - 05:04:04 10° WSW 05:19:53 54° S 05:29:13 10° ESE visible
26 Oct - 07:21:03 10° W 07:32:39 43° SSW 07:39:27 10° SE daylight
26 Oct - 09:38:59 10° WSW 09:43:15 15° SW 09:46:37 10° S daylight
26 Oct - 23:29:05 10° SSE 23:36:07 13° SE 23:42:49 10° ESE night (unlit)
27 Oct - 01:33:52 10° SSW 01:50:08 34° SSE 02:02:50 10° E visible
27 Oct - 03:47:22 10° WSW 04:04:45 52° S 04:15:51 10° E visible
27 Oct - 06:04:00 10° W 06:18:32 52° S 06:26:55 10° ESE visible
27 Oct - 08:21:22 10° W 08:30:19 28° SSW 08:36:03 10° SSE daylight
